Date,TemperatureHighF,TemperatureAvgF,TemperatureLowF,DewpointHighF,DewpointAvgF,DewpointLowF,HumidityHigh,HumidityAvg,HumidityLow,PressureMaxIn,PressureMinIn,WindSpeedMaxMPH,WindSpeedAvgMPH,GustSpeedMaxMPH,PrecipitationSumIn
2013-1-1,80.5,72.3,65.6,62.5,60.2,57.5,84,66,52,30.11,29.97,6,1,10,0.00
2013-1-2,74.0,66.7,61.6,68.0,62.9,59.3,95,88,79,30.01,29.95,1,0,5,0.00
2013-1-3,73.5,70.0,66.9,67.3,65.7,64.3,92,86,77,30.05,29.96,0,0,0,0.00
2013-1-4,84.1,69.9,65.2,71.5,65.9,62.6,95,88,58,30.12,30.02,0,0,4,0.09
2013-1-6,82.8,82.2,81.4,69.9,69.3,68.9,66,65,63,29.99,29.98,4,4,6,0.02
2013-1-7,73.2,71.0,69.6,69.1,67.5,66.7,96,89,82,30.08,30.02,0,0,8,0.01
2013-1-8,74.2,70.2,67.8,71.2,67.9,66.0,94,92,88,30.08,29.98,3,0,7,0.08
2013-1-9,84.0,77.2,73.3,71.1,70.0,68.4,90,79,62,30.19,30.07,9,4,17,0.00
2013-1-10,81.4,75.9,71.8,68.7,65.9,62.8,82,72,56,30.21,30.09,8,3,13,0.00
2013-1-11,82.4,75.0,70.1,68.8,66.7,64.9,85,76,58,30.17,30.07,7,2,10,0.00
2013-1-12,83.0,74.5,67.8,69.2,65.9,63.0,92,75,56,30.10,30.00,7,2,12,0.00
2013-1-13,83.4,73.6,65.6,68.3,64.1,61.4,92,74,51,30.04,29.99,7,2,13,0.00
2013-1-14,82.2,75.8,66.6,64.6,63.2,60.8,86,66,51,30.09,30.03,6,2,10,0.00
2013-1-15,82.4,71.4,63.1,69.8,64.1,61.0,95,79,56,30.05,29.96,6,1,9,0.00
2013-1-16,81.6,69.8,62.0,70.5,64.5,59.6,96,84,63,30.02,29.93,4,0,7,0.01
2013-1-17,82.6,70.6,60.1,72.5,65.3,54.2,96,84,63,30.02,29.90,7,2,13,0.17
2013-1-18,69.8,61.9,53.6,60.2,53.2,47.5,81,73,64,30.11,30.02,4,1,12,0.00
2013-1-19,74.7,67.4,61.8,66.8,62.5,57.4,95,85,75,30.13,30.01,3,0,8,0.07
2013-1-20,85.5,71.6,64.0,69.5,64.9,61.2,96,81,45,30.07,29.93,3,0,5,0.01
2013-1-21,84.0,72.3,65.5,70.9,66.4,64.0,96,83,57,29.99,29.88,5,0,9,0.02
2013-3-14,59.9,58.2,56.3,48.3,47.6,45.5,73,68,59,30.11,30.10,2,1,7,0.00
2013-3-15,76.5,65.1,52.5,51.6,48.7,40.0,87,58,31,30.18,30.07,5,1,10,0.00
2013-3-16,78.6,62.6,51.9,58.4,51.8,46.8,94,71,42,30.11,30.08,3,0,6,0.00
2013-3-17,79.6,76.1,65.0,62.0,58.0,56.7,90,54,47,30.07,29.96,7,3,13,0.00
2013-3-18,82.2,76.1,66.3,69.7,66.6,62.9,90,74,57,29.99,29.89,6,3,11,0.05
2013-3-19,81.6,77.0,69.9,65.9,64.7,63.1,82,66,58,29.88,29.81,1,0,8,0.06
2013-3-20,89.7,78.4,62.7,70.0,63.0,57.1,95,61,36,29.90,29.72,6,1,10,0.07
2013-3-22,79.9,72.6,59.2,67.3,62.2,55.6,89,71,54,29.92,29.84,7,4,16,0.03
2013-3-23,89.7,85.8,75.4,70.9,69.2,65.1,86,58,49,29.80,29.73,7,4,11,0.01
2013-3-24,90.3,86.5,75.3,71.3,70.4,69.2,87,60,51,29.81,29.63,11,8,17,0.00
2013-3-25,84.3,78.0,73.0,70.1,59.5,50.3,89,56,35,29.83,29.70,5,2,19,0.00
2013-3-26,72.3,67.9,62.4,38.6,36.3,34.4,39,32,25,30.04,29.99,5,4,10,0.00
2013-3-27,73.5,73.5,73.5,41.0,41.0,41.0,31,31,31,30.10,30.10,3,3,3,0.00
2013-3-28,79.0,70.7,58.4,48.8,42.4,33.4,54,38,20,30.18,30.07,4,1,7,0.00
2013-3-29,77.7,70.1,54.8,52.9,51.2,45.9,72,52,36,30.17,30.12,6,2,10,0.00
2013-3-30,78.5,69.0,55.0,57.7,51.9,44.6,92,57,31,30.18,30.08,5,1,11,0.00
2013-3-31,80.3,69.9,59.3,64.7,60.7,55.9,92,74,55,30.07,29.97,8,2,11,0.00
2013-4-1,86.7,79.6,71.5,69.3,66.1,61.4,86,64,46,29.97,29.88,7,3,10,0.48
2013-4-2,87.6,80.1,75.1,65.2,64.3,63.5,71,59,46,29.96,29.92,4,2,7,0.01
2013-4-3,86.3,80.0,74.7,69.2,67.1,64.9,82,66,51,29.96,29.90,7,4,15,0.00
2013-4-4,87.8,76.8,67.6,71.7,68.8,64.9,95,78,57,29.92,29.83,8,3,9,0.27
2013-4-5,71.5,67.4,65.6,70.0,65.8,63.7,96,95,93,29.90,29.74,3,1,7,1.49
2013-4-6,82.2,75.3,66.3,64.1,61.1,59.1,80,62,48,30.00,29.92,7,2,13,0.01
2013-4-7,79.9,74.6,65.6,68.2,64.7,59.5,87,72,59,30.05,29.99,7,3,12,0.05
2013-4-8,85.1,80.0,64.7,66.7,60.5,56.6,94,53,39,30.04,29.97,5,2,8,0.00
2013-4-9,76.7,74.5,73.0,66.0,65.4,64.8,78,73,68,30.02,30.00,4,1,6,0.00
2013-4-10,87.2,77.6,69.4,71.7,69.1,65.5,88,76,55,30.02,29.91,8,4,13,0.00
2013-4-11,76.7,76.7,76.7,69.7,69.6,69.3,79,79,78,29.93,29.93,5,5,10,0.00
2013-4-12,91.8,84.1,76.7,75.4,73.7,72.5,88,72,58,29.86,29.78,7,3,14,0.02
2013-4-13,87.4,79.3,74.7,73.5,72.0,71.1,90,79,61,29.90,29.81,5,1,8,0.13
2013-4-14,91.0,85.3,75.4,73.1,71.5,69.9,89,65,52,29.88,29.80,6,3,10,0.00
2013-4-15,92.7,80.9,72.3,75.2,72.2,68.4,92,77,53,29.97,29.85,7,2,14,0.01
2013-4-16,90.1,81.8,72.3,76.7,72.0,67.4,95,73,55,30.03,29.96,5,2,9,0.00
2013-4-17,85.7,80.0,76.3,69.7,68.9,68.4,78,69,59,29.98,29.93,5,2,9,0.00
2013-7-10,76.1,52.8,74.0,74.9,22.4,-99.9,96,67,95,29.96,29.92,2,-295,5,0.91
2013-7-11,96.6,82.0,74.2,79.9,73.8,68.7,98,79,48,29.96,29.85,7,1,17,0.00
2013-7-12,77.7,76.3,75.4,75.2,73.7,72.6,92,92,91,29.89,29.88,0,0,0,0.83
2013-7-15,91.6,81.8,72.1,78.3,73.2,70.1,99,77,55,30.00,29.92,7,1,14,0.20
2013-7-16,85.3,78.0,74.0,74.7,72.2,68.7,95,83,60,30.05,29.96,7,2,14,0.15
2013-7-17,79.2,73.8,71.8,76.0,71.2,-99.9,98,94,81,30.06,29.96,4,-9,7,2.19
2013-7-18,88.6,76.1,71.8,76.7,73.1,69.8,99,91,60,30.05,29.96,10,1,12,1.66
2013-7-19,91.6,84.3,74.7,79.4,76.4,73.8,100,78,58,30.05,29.96,7,2,11,0.01
2013-7-20,90.7,81.9,76.5,79.1,76.0,70.3,96,83,58,30.03,29.95,6,1,7,0.11
2013-7-21,95.1,83.0,77.0,79.1,76.7,74.8,97,83,55,30.07,29.97,5,0,7,0.00
2013-7-22,95.4,84.9,76.5,77.1,75.0,73.1,96,74,50,30.06,29.98,3,1,10,0.00
2013-7-23,95.6,84.5,76.3,78.7,75.2,73.5,96,75,51,30.03,29.89,4,0,7,0.00
2013-7-24,96.3,85.6,77.4,77.3,74.6,69.9,94,72,46,29.95,29.83,11,2,12,0.13
2013-7-25,97.3,85.1,74.9,77.3,74.3,71.9,95,72,46,29.94,29.84,5,2,12,0.00
2013-7-26,88.0,81.1,78.3,77.1,75.9,75.1,91,85,69,29.95,29.90,6,1,10,0.00
2013-7-30,88.4,88.2,88.0,77.6,77.3,77.0,71,70,70,30.06,30.06,1,1,8,0.00
2013-8-2,94.9,93.4,92.1,73.6,72.8,71.6,55,52,48,29.93,29.91,1,1,8,0.00
2013-8-5,93.4,82.0,78.6,78.0,71.6,-99.9,87,76,59,29.91,29.87,3,0,5,0.00
2013-8-6,95.6,83.0,76.5,79.4,75.8,73.6,95,80,55,29.91,29.81,4,0,7,0.49
2013-8-7,92.9,83.1,76.5,79.2,75.3,73.6,96,79,58,29.90,29.82,6,1,9,0.69
2013-8-8,94.3,85.5,80.5,76.6,74.2,69.8,82,70,49,29.93,29.83,8,3,13,0.00
2013-8-9,89.7,82.3,76.5,77.6,73.7,68.9,94,76,56,29.98,29.86,7,2,13,0.12
2013-8-10,94.7,85.6,78.5,77.1,75.2,71.8,86,72,51,30.03,29.95,7,3,12,0.00
2013-8-11,94.9,86.3,80.5,77.5,75.8,73.4,87,72,54,30.04,29.98,6,2,11,0.00
2013-8-12,95.9,85.4,76.1,76.5,74.4,69.2,93,72,44,30.02,29.93,3,1,8,0.00
2013-8-13,96.1,86.2,78.6,77.8,74.7,69.4,93,71,43,29.96,29.88,4,1,11,0.01
2013-8-14,96.1,85.8,77.2,76.7,74.4,70.7,94,71,46,29.95,29.84,5,1,11,0.00
2013-8-15,92.1,80.9,76.7,78.2,76.7,73.7,96,88,60,29.98,29.88,4,0,6,1.38
2013-8-16,95.6,85.2,78.1,80.8,76.8,73.9,97,78,50,29.97,29.89,6,1,7,0.00
2013-8-17,94.9,86.5,81.1,78.7,76.8,71.9,91,74,49,29.99,29.91,6,2,11,0.00
2013-8-18,92.1,84.7,79.6,80.9,76.9,73.2,90,78,62,30.00,29.90,9,2,13,0.17
2013-8-19,93.8,84.5,77.9,81.4,76.1,73.8,95,77,54,29.99,29.87,7,2,11,0.13
2013-8-20,93.4,85.1,79.8,77.3,74.8,-99.9,87,74,55,29.97,29.90,7,2,10,0.01
2013-8-21,93.2,52.7,77.6,80.9,11.2,-99.9,96,51,60,29.98,29.91,10,-372,13,0.13
2013-8-22,92.7,31.6,82.6,78.1,-41.4,-99.9,80,24,61,29.98,29.86,13,-628,13,0.00
2013-8-23,94.0,67.3,78.1,78.4,37.7,-99.9,93,58,57,29.93,29.85,7,-212,12,0.00
2013-8-24,97.1,84.2,77.0,78.7,75.7,73.9,96,77,51,30.02,29.89,6,1,8,0.02
2013-8-25,90.5,82.2,76.7,76.8,75.4,73.6,95,81,60,30.06,29.94,2,0,7,0.00
2013-8-31,94.9,65.7,70.1,74.5,49.4,-99.9,99,81,51,29.92,29.84,11,-122,14,3.56
2013-9-1,85.9,69.6,72.8,83.3,58.1,-99.9,100,85,76,29.93,29.84,8,-98,8,0.77
2013-9-2,97.3,79.3,74.6,83.2,75.2,72.6,99,89,46,29.96,29.86,7,0,19,0.42
2013-9-3,87.4,67.8,72.8,84.6,51.9,-99.9,99,79,71,29.94,29.85,2,-134,4,0.08
2013-9-4,90.5,81.9,75.8,82.5,77.1,74.9,98,86,64,29.98,29.86,6,0,11,0.27
2013-9-5,92.1,83.0,77.2,80.5,77.1,75.0,98,83,64,29.98,29.91,5,0,8,0.17
2013-9-6,97.1,83.7,76.7,79.0,72.2,-99.9,98,74,48,29.95,29.83,2,-18,6,0.00
2013-9-7,91.0,81.0,75.1,77.4,74.3,-99.9,96,81,58,29.91,29.81,4,-4,6,0.01
2013-9-8,-200.0,0.0,200.0,-99.9,-99.9,-99.9,0,0,100,29.87,29.78,0,-999,0,0.00
2013-9-9,-200.0,0.0,200.0,-99.9,-99.9,-99.9,0,0,100,29.91,29.81,0,-999,0,0.00
2013-9-10,-200.0,0.0,200.0,-99.9,-99.9,-99.9,0,0,100,29.95,29.86,0,-999,0,0.00
2013-9-11,-200.0,0.0,200.0,-99.9,-99.9,-99.9,0,0,100,29.94,29.88,0,-999,0,0.00
2013-9-12,-200.0,0.0,200.0,-99.9,-99.9,-99.9,0,0,100,29.93,29.80,0,-999,0,0.00
2013-9-13,-200.0,0.0,200.0,-99.9,-99.9,-99.9,0,0,100,29.82,29.71,0,-999,0,0.00
2013-9-14,-200.0,0.0,200.0,-99.9,-99.9,-99.9,0,0,100,29.89,29.74,0,-999,0,0.00
2013-9-15,-200.0,0.0,200.0,-99.9,-99.9,-99.9,0,0,100,29.90,29.84,0,-999,0,0.00
2013-9-18,-200.0,0.0,200.0,-99.9,-99.9,-99.9,0,0,100,29.87,29.87,0,-999,0,0.00
2013-9-19,-200.0,0.0,200.0,-99.9,-99.9,-99.9,0,0,100,29.92,29.91,0,-999,0,0.00
2013-9-20,-200.0,0.0,200.0,-99.9,-99.9,-99.9,0,0,100,29.90,29.86,0,-999,0,0.00
2013-11-27,80.9,68.2,58.1,61.1,55.7,51.3,81,66,47,30.03,29.79,8,2,0,0.82
2013-11-28,76.0,62.4,49.5,59.1,53.0,45.8,88,73,54,30.16,30.03,4,1,0,0.00
2013-11-29,78.6,68.9,58.7,62.5,58.8,56.4,92,72,52,30.18,30.10,6,1,0,0.00
2013-11-30,81.6,68.8,60.5,69.8,62.8,58.2,94,82,61,30.12,30.01,4,0,0,0.23
2013-12-1,78.6,64.7,61.3,68.7,62.0,59.5,96,91,71,30.01,29.93,1,0,0,0.01
2013-12-2,77.6,68.2,60.7,66.8,62.7,57.6,97,84,52,29.86,29.74,4,0,0,0.01
2013-12-3,83.6,70.0,58.9,65.9,61.7,57.2,96,78,47,29.92,29.82,3,0,6,0.00
2013-12-4,83.8,73.0,64.8,69.5,65.0,62.7,96,78,53,30.01,29.90,2,0,5,0.00
2013-12-5,84.1,74.4,64.8,72.8,67.5,63.1,96,80,58,30.08,29.99,6,2,10,0.01
2013-12-6,84.9,77.3,74.7,70.4,69.2,66.9,85,77,56,30.10,30.00,6,2,11,0.00
2013-12-7,80.9,79.6,78.8,67.7,67.5,67.3,68,66,64,30.06,30.06,2,2,5,0.00
2013-12-8,84.7,76.8,69.2,70.6,68.5,66.0,92,77,55,30.12,30.03,7,2,0,0.01
2013-12-9,84.9,77.7,71.5,69.7,67.5,61.7,89,72,47,30.11,30.02,7,2,11,0.00
2013-12-10,85.9,60.4,68.8,71.6,31.9,-99.9,90,61,58,30.07,29.99,5,-184,5,0.00
2013-12-11,86.3,61.3,69.9,71.9,33.2,-99.9,96,60,59,30.11,30.03,5,-216,10,0.00
2013-12-12,83.6,72.0,63.5,73.1,65.6,58.3,96,81,60,30.14,30.04,5,1,10,0.01
2013-12-13,79.9,70.8,61.5,69.0,64.1,57.9,95,80,62,30.10,30.00,4,1,12,0.66
2013-12-14,84.1,77.2,72.8,71.0,69.6,67.7,90,78,62,30.01,29.90,6,2,10,0.00
2013-12-15,87.4,77.6,72.0,74.8,71.4,69.1,94,82,60,29.97,29.85,9,2,14,0.00
2013-12-16,75.6,68.6,61.3,69.0,61.0,57.7,91,77,62,30.07,29.95,2,0,7,0.00
2013-12-17,80.7,67.0,58.0,65.4,59.1,55.8,94,77,53,30.09,30.01,3,0,7,0.00
2013-12-18,80.1,66.8,58.4,61.6,57.2,54.1,95,74,46,30.15,30.05,3,1,7,0.01
2013-12-19,80.9,68.4,57.0,63.4,58.7,54.7,95,73,49,30.15,30.06,9,1,13,0.00
2013-12-20,83.2,62.4,66.0,69.4,37.9,-99.9,89,63,55,30.09,30.02,7,-165,11,0.00
2013-12-21,84.3,48.9,75.1,71.4,3.7,-99.9,84,44,63,30.06,29.97,11,-388,13,0.00
2013-12-22,85.5,80.1,75.6,72.5,70.6,68.6,89,74,59,30.07,30.00,7,2,8,0.00
2013-12-23,86.1,77.7,70.3,72.5,70.5,67.6,92,79,60,30.09,30.03,4,1,13,0.01
2013-12-24,87.6,72.0,66.0,73.6,65.8,59.2,96,82,54,30.09,29.99,4,1,11,0.01
2013-12-25,77.7,72.2,65.5,66.7,64.8,60.6,89,78,67,30.08,30.00,4,2,10,0.00
2013-12-26,77.0,71.9,70.3,72.6,68.8,66.5,94,90,78,30.08,29.99,3,0,6,0.24